Airfield :
LOGIN :

Register | Disclaimer

   EN    FR    IT 

 










Legend :    VFR   Marginal VFR   IFR   Intensive IFR   Very Intensive IFR
Visi :
Ceiling :
>= 8 km
>= 3000ft
5 to 8 km
1000 to 3000 ft
1500m to 5 km
500 to 1000 ft
800 to 1500m
200 to 500 ft
< 800m
< 200 ft
Symbols :   Thunderstorms  Fog  Heavy snow  Heavy precipitations  Wind > 20 kt
SIGMETs :     Misc.  Thunderstorms  Icing  Turbulence  Mountain Waves  Volcanic Ashes







- Airport Elevation : 162 ft
- IATA code : BOD
- Download approach charts


LFBD - Bordeaux / Merignac

CURRENT METAR :
  • 201730Z AUTO 35011KT 320V040 CAVOK 29/17 Q1019 NOSIG

EXPIRED METARs :
  • 201700Z AUTO 32009KT 290V350 CAVOK 30/17 Q1019 TEMPO SCT040TCU
  • 201630Z AUTO 31010KT CAVOK 30/18 Q1019 TEMPO SCT040TCU
  • 201600Z AUTO 36007KT 290V050 CAVOK 30/15 Q1020 NOSIG
  • 201530Z AUTO 33006KT 280V050 CAVOK 31/14 Q1020 NOSIG
  • 201500Z AUTO 01006KT 340V090 CAVOK 31/14 Q1020 NOSIG

TAF TAF LFBD
Valid from the 20 at 18:00 until the 22 at 00:00 UTC


201700Z 2018/2124 32008KT CAVOK TX33/2115Z TN18/2106Z
PROB30
TEMPO 2114/2118 SCT050TCU
ATIS : +33 5 57 92 81 04
No reported NOTAMs for that airfield.



MET'MAP, your aeronautical weather chart ! - Copyright ORBIFLY December 2007 - Disclaimer

ORBIFLY MET'MAP TEAM :

Programming & Development : Alexandra Zaïnal
Concept & Development : Baudouin d'Aumeries
Co-Development & Prog : Marc-Olivier Méhu
Technical & hardware support : Manuel Goepfert

Contact : metmap@orbifly.com




SOURCES & CREDITS :

   NOAA